Find ADD-425-2

NORAD ID: 59452 Int'l Des: 2024-066 Owner: DAPA Country: KR operational
LEOCIRCULAR

現在のビュー

3D地球を読み込み中...

ADD-425-2について

説明を読み込み中...

次回通過

Passes for default location (London). Set your location on the main map for personalized predictions.

高度履歴

Loading altitude history...

軌道要素

1 59452U 24066L 26150.83573013 .00004825 00000-0 41683-3 0 9991
2 59452 45.4120 334.1553 0006807 316.9223 43.1122 14.98417024117455
Epoch: May 30, 2026 • Age: 10 hours

現在のステータス

高度 578.0 km
速度 7.57 km/s
衛星直下点 34.27°N, 127.88°E
打ち上げ日 Apr 7, 2024
運用期間 2.1 years
タイプ other

技術仕様

分類 Payload
質量 800.00 kg
乾燥質量 750.00 kg
総質量 800.00 kg
長さ 2.90 m
直径 1.90 m
スパン 6.00 m
形状 Hex+3 pan
製造者 KRAI
バスタイプ CAS500
フェーズステータス In Orbit
所有者/国 DAPA/KR

Most Searched